Regional Weather Roundup
Issued by NWS Sioux Falls, SD

Home | Current Version | Previous Version | Graphics & Text | Print | Product List | Glossary On
Versions: 1 2 3 4 5 6 7 8 9 10 11 12 13 14 15 16 17 18 19 20 21 22 23 24 25 26 27 28 29 30 31 32 33 34 35 36 37 38 39 40 41 42 43 44 45 46 47 48 49 50
000
ASUS43 KFSD 120210
RWRFSD

WEATHER ROUNDUP FOR SE SOUTH DAKOTA/SW MINNESOTA/NW IOWA
NATIONAL WEATHER SERVICE SIOUX FALLS SD
800 PM CST THU FEB 11 2016

NOTE: "FAIR" INDICATES FEW OR NO CLOUDS BELOW 12,000 FEET WITH NO
SIGNIFICANT WEATHER AND OR OBSTRUCTIONS TO VISIBILITY.


SDZ038>040-050-052>070-120300-
SOUTHEAST SOUTH DAKOTA

CITY           SKY/WX    TMP DP  RH WIND       PRES   REMARKS
BROOKINGS      CLOUDY    13  11  92 SW3       30.19R
CHAMBERLAIN    CLOUDY    24  22  93 CALM      30.21R
HURON          CLOUDY    21  19  92 W3        30.23R
MADISON        FAIR      12  12 100 W3        30.18R
MITCHELL       CLOUDY    16  14  92 CALM      30.23R FOG
SIOUX FALLS    FLURRIES  12   9  87 CALM      30.20R
WINNER         CLOUDY    29  25  85 N8        30.19R WCI  21
YANKTON        CLOUDY    18  14  86 E6        30.21R WCI   9
$$

MNZ071-072-080-081-089-090-097-098-120300-
SOUTHWEST MINNESOTA

CITY           SKY/WX    TMP DP  RH WIND       PRES   REMARKS
FAIRMONT       MOCLDY    10   5  79 S6        30.20S WCI   1
JACKSON        CLOUDY    10   7  85 SW8       30.19S WCI  -1
LUVERNE        LGT SNOW  12  10  92 CALM      30.21S
MARSHALL       CLOUDY    11   8  88 W3        30.22S
MONTEVIDEO     CLOUDY    16  10  79 CALM      30.24S
PIPESTONE      FLURRIES  12   5  73 CALM      30.18R
REDWOOD FALLS  CLOUDY    16  12  84 SW5       30.23S WCI   9
TRACY          CLOUDY    12  10  89 CALM      30.21S
WINDOM         CLOUDY     9   5  85 CALM      30.19S
WORTHINGTON    CLOUDY    10   7  85 SW7       30.18F WCI   0
$$

IAZ001>003-012>014-020>022-031-032-NEZ013-014-SDZ071-120300-
NORTHWEST IOWA

CITY           SKY/WX    TMP DP  RH WIND       PRES   REMARKS
CHEROKEE       LGT SNOW  15  14  93 S5        30.22S WCI   8
DENISON        LGT SNOW  18  16  93 E6        30.20R WCI   9
ESTHERVILLE    CLOUDY     8   6  92 SW8       30.20S WCI  -4
LE MARS        CLOUDY    18  18 100 SE6       30.23S FOG     WCI   9
ORANGE CITY    CLOUDY    16  14  93 CALM      30.20S
SHELDON        CLOUDY    12  10  92 S7        30.19S WCI   2
SIOUX CITY     LGT SNOW  20  16  84 E6        30.21F FOG     WCI  12
SPENCER        CLOUDY    12   8  84 S5        30.21S WCI   4
STORM LAKE     CLOUDY    14  14 100 S8        30.20R FOG     WCI   3
$$

ABBREVIATIONS USED IN REMARKS
   TC - TEMPERATURE IN CELSIUS
  WCI - WIND CHILL INDEX
   HX - HEAT INDEX
  VSB - VISIBILITY




USA.gov is the U.S. government's official web portal to all federal, state and local government web resources and services.